ONEWEB-0253 (48971 NORAD) Tracking and Keplerian Element Data

This shows tracking and keplerian element data for the satellite.

Feedback or suggestion? Click here.




ElementValue
Catalog48971
NameONEWEB-0253
Epoch Orbit1387
Epoch Day269.25001157
Epoch Year2021
RAAN211.962
Inclination87.9183
Eccentricity0.0006995
Argument of Perigee343.8004
Mean Anonmoly324.6271
Mean Motion13.4016278
Decay Rate1.4E-07
L11 48971U 21060E 21269.25001157 .00000014 00000-0 00000+0 0 9993
L22 48971 87.9183 211.9620 0006995 343.8004 324.6271 13.40162780 13875

Live tracking and technical data element details for ONEWEB-0253 (NORAD 48971). ONEWEB-0253 can be tracked NOW for your location showing map with azimuth and elevation plus other details from your city location.

Track the satellite on the map from your city or location and see movement details for azimuth, elevation, latitude, longitude, range, height, and movement on the map or in text.







IsCatalogInMostPopularTable: catalog: 48971, numindb: 25
Update: records affected: 1



GetName: 48971 ONEWEB-0253

Hit Count: updated at: Sun, 26 Sep 2021 15:39:12 GMT